,,,PA_Meas_PMT16A,,PR_Meas_QMR101_102,,RH_Meas_QMH101,,SR_Meas_QMS101,,TA_Meas_QMH101,,GenWind,,GenWind,
date,time,status,PA,status,PR,status,RH,status,SR,status,TA,status,DirAvg,status,SpdAvg,
2012-05-23, 00:00:04,VALID,999.923,VALID,0,VALID,86.352,VALID,0,VALID,24.8332,VALID,168,VALID,1.26914,
2012-05-23, 00:01:04,VALID,999.885,VALID,0,VALID,86.2605,VALID,0,VALID,24.8917,VALID,174,VALID,1.2457,
2012-05-23, 00:02:04,VALID,999.865,VALID,0,VALID,86.1766,VALID,0,VALID,24.9503,VALID,187,VALID,1.41016,
2012-05-23, 00:03:04,VALID,999.825,VALID,0,VALID,85.7569,VALID,0,VALID,25.0479,VALID,158,VALID,1.59375,
2012-05-23, 00:04:04,VALID,999.856,VALID,0,VALID,85.3755,VALID,0,VALID,25.1064,VALID,159,VALID,0.95,
2012-05-23, 00:05:04,VALID,999.856,VALID,0,VALID,85.2229,VALID,0,VALID,25.1064,VALID,165,VALID,0.849219,
2012-05-23, 00:06:04,VALID,999.852,VALID,0,VALID,85.2992,VALID,0,VALID,25.0674,VALID,136,VALID,0.557031,
2012-05-23, 00:07:04,VALID,999.845,VALID,0,VALID,85.467,VALID,0,VALID,25.0284,VALID,133,VALID,0.267188,
2012-05-23, 00:08:04,VALID,999.888,VALID,0,VALID,85.6425,VALID,0,VALID,25.0088,VALID,157,VALID,0.401563,
2012-05-23, 00:09:04,VALID,999.86,VALID,0,VALID,85.7722,VALID,0,VALID,24.9503,VALID,157,VALID,0.293359,
2012-05-23, 00:10:04,VALID,999.854,VALID,0,VALID,85.9172,VALID,0,VALID,24.8917,VALID,157,VALID,0.13125,
2012-05-23, 00:11:04,VALID,999.838,VALID,0,VALID,86.2452,VALID,0,VALID,24.8917,VALID,157,VALID,0.259375,
2012-05-23, 00:12:04,VALID,999.807,VALID,0,VALID,86.291,VALID,0,VALID,24.8527,VALID,157,VALID,0.154297,
2012-05-23, 00:13:04,VALID,999.783,VALID,0,VALID,86.3215,VALID,0,VALID,24.8332,VALID,157,VALID,0,
2012-05-23, 00:14:04,VALID,999.772,VALID,0,VALID,86.5886,VALID,0,VALID,24.8332,VALID,157,VALID,0.491016,
2012-05-23, 00:15:04,VALID,999.755,VALID,0,VALID,86.764,VALID,0,VALID,24.8136,VALID,157,VALID,0.195313,
2012-05-23, 00:16:04,VALID,999.763,VALID,0,VALID,86.9472,VALID,0,VALID,24.7746,VALID,157,VALID,0.450781,
2012-05-23, 00:17:04,VALID,999.747,VALID,0,VALID,86.9166,VALID,0,VALID,24.7941,VALID,111,VALID,0.474609,
2012-05-23, 00:18:04,VALID,999.726,VALID,0,VALID,87.176,VALID,0,VALID,24.716,VALID,40,VALID,0.853125,
2012-05-23, 00:19:04,VALID,999.755,VALID,0,VALID,87.5117,VALID,0,VALID,24.638,VALID,40,VALID,0.849219,
2012-05-23, 00:20:04,VALID,999.742,VALID,0,VALID,88.0611,VALID,0,VALID,24.5989,VALID,40,VALID,0.842188,
2012-05-23, 00:21:04,VALID,999.742,VALID,0,VALID,88.2442,VALID,0,VALID,24.5989,VALID,50,VALID,0.922266,
2012-05-23, 00:22:04,VALID,999.714,VALID,0,VALID,88.084,VALID,0,VALID,24.5989,VALID,50,VALID,1.02344,
2012-05-23, 00:23:04,VALID,999.7,VALID,0,VALID,88.2289,VALID,0,VALID,24.5794,VALID,50,VALID,1.01797,
2012-05-23, 00:24:04,VALID,999.682,VALID,0,VALID,88.4197,VALID,0,VALID,24.5794,VALID,50,VALID,0.895703,
2012-05-23, 00:25:04,VALID,999.663,VALID,0,VALID,88.618,VALID,0,VALID,24.5599,VALID,50,VALID,1.02031,
2012-05-23, 00:26:04,VALID,999.668,VALID,0,VALID,88.5417,VALID,0,VALID,24.5404,VALID,50,VALID,1.05859,
2012-05-23, 00:27:04,VALID,999.669,VALID,0,VALID,88.7325,VALID,0,VALID,24.5013,VALID,50,VALID,0.889063,
2012-05-23, 00:28:04,VALID,999.632,VALID,0,VALID,88.9995,VALID,0,VALID,24.4642,VALID,50,VALID,0.846875,
2012-05-23, 00:29:04,VALID,999.638,VALID,0,VALID,89.5336,VALID,0,VALID,24.3647,VALID,50,VALID,0.994922,
2012-05-23, 00:30:04,VALID,999.616,VALID,0,VALID,90.0448,VALID,0,VALID,24.2671,VALID,50,VALID,0.929297,
2012-05-23, 00:31:04,VALID,999.565,VALID,0,VALID,90.8611,VALID,0,VALID,24.2086,VALID,55,VALID,0.882422,
2012-05-23, 00:32:04,VALID,999.544,VALID,0,VALID,91.3037,VALID,0,VALID,24.15,VALID,65,VALID,0.726953,
2012-05-23, 00:33:04,VALID,999.511,VALID,0,VALID,91.9217,VALID,0,VALID,24.072,VALID,73,VALID,0.875781,
2012-05-23, 00:34:04,VALID,999.467,VALID,0,VALID,92.3108,VALID,0,VALID,24.0329,VALID,73,VALID,1.02031,
2012-05-23, 00:35:04,VALID,999.472,VALID,0,VALID,92.7075,VALID,0,VALID,23.9939,VALID,73,VALID,1.0793,
2012-05-23, 00:36:04,VALID,999.447,VALID,0,VALID,92.9517,VALID,0,VALID,23.9744,VALID,73,VALID,0.936328,
2012-05-23, 00:37:04,VALID,999.452,VALID,0,VALID,93.0432,VALID,0,VALID,23.9159,VALID,73,VALID,0.733984,
2012-05-23, 00:38:04,VALID,999.443,VALID,0,VALID,93.234,VALID,0,VALID,23.9159,VALID,73,VALID,0.792969,
2012-05-23, 00:39:04,VALID,999.433,VALID,0,VALID,93.4781,VALID,0,VALID,23.9159,VALID,73,VALID,0.579297,
2012-05-23, 00:40:04,VALID,999.42,VALID,0,VALID,93.6307,VALID,0,VALID,23.9159,VALID,73,VALID,0.392969,
2012-05-23, 00:41:04,VALID,999.445,VALID,0,VALID,93.6994,VALID,0,VALID,23.9159,VALID,73,VALID,0.188281,
2012-05-23, 00:42:04,VALID,999.392,VALID,0,VALID,93.7299,VALID,0,VALID,23.9159,VALID,73,VALID,0,
2012-05-23, 00:43:04,VALID,999.391,VALID,0,VALID,93.7299,VALID,0,VALID,23.8963,VALID,73,VALID,0,
2012-05-23, 00:44:04,VALID,999.379,VALID,0,VALID,93.7451,VALID,0,VALID,23.8768,VALID,73,VALID,0,
2012-05-23, 00:45:04,VALID,999.354,VALID,0,VALID,93.8138,VALID,0,VALID,23.8768,VALID,73,VALID,0,
2012-05-23, 00:46:04,VALID,999.381,VALID,0,VALID,93.8901,VALID,0,VALID,23.875,VALID,73,VALID,0,
2012-05-23, 00:47:04,VALID,999.363,VALID,0,VALID,93.9206,VALID,0,VALID,23.8555,VALID,73,VALID,0,
2012-05-23, 00:48:04,VALID,999.375,VALID,0,VALID,93.9359,VALID,0,VALID,23.8768,VALID,73,VALID,0,
2012-05-23, 00:49:04,VALID,999.384,VALID,0,VALID,93.9893,VALID,0,VALID,23.8573,VALID,73,VALID,0.300391,
2012-05-23, 00:50:04,VALID,999.408,VALID,0,VALID,93.9817,VALID,0,VALID,23.8573,VALID,73,VALID,0.329688,
2012-05-23, 00:51:04,VALID,999.426,VALID,0,VALID,94.0656,VALID,0,VALID,23.8378,VALID,73,VALID,0.383984,
2012-05-23, 00:52:04,VALID,999.405,VALID,0,VALID,94.0274,VALID,0,VALID,23.8378,VALID,73,VALID,0.294531,
2012-05-23, 00:53:04,VALID,999.389,VALID,0,VALID,93.9969,VALID,0,VALID,23.8165,VALID,73,VALID,0.212109,
2012-05-23, 00:54:04,VALID,999.373,VALID,0,VALID,93.9817,VALID,0,VALID,23.8183,VALID,73,VALID,0,
2012-05-23, 00:55:04,VALID,999.354,VALID,0,VALID,93.9817,VALID,0,VALID,23.7775,VALID,73,VALID,0,
2012-05-23, 00:56:04,VALID,999.328,VALID,0,VALID,94.058,VALID,0,VALID,23.7988,VALID,73,VALID,0,
2012-05-23, 00:57:04,VALID,999.304,VALID,0,VALID,94.1266,VALID,0,VALID,23.8183,VALID,73,VALID,0,
2012-05-23, 00:58:04,VALID,999.27,VALID,0,VALID,94.1648,VALID,0,VALID,23.7988,VALID,73,VALID,0,
2012-05-23, 00:59:04,VALID,999.259,VALID,0,VALID,94.1877,VALID,0,VALID,23.7988,VALID,73,VALID,0,
2012-05-23, 01:00:04,VALID,999.256,VALID,0,VALID,94.2487,VALID,0,VALID,23.8183,VALID,73,VALID,0,
2012-05-23, 01:01:04,VALID,999.255,VALID,0,VALID,94.2945,VALID,0,VALID,23.8378,VALID,73,VALID,0,
2012-05-23, 01:02:04,VALID,999.238,VALID,0,VALID,94.3403,VALID,0,VALID,23.8573,VALID,73,VALID,0,
2012-05-23, 01:03:04,VALID,999.215,VALID,0,VALID,94.3708,VALID,0,VALID,23.8963,VALID,73,VALID,0,
2012-05-23, 01:04:04,VALID,999.248,VALID,0,VALID,94.3631,VALID,0,VALID,23.9159,VALID,73,VALID,0,
2012-05-23, 01:05:04,VALID,999.233,VALID,0,VALID,94.3097,VALID,0,VALID,23.9354,VALID,73,VALID,0,
2012-05-23, 01:06:04,VALID,999.235,VALID,0,VALID,94.2182,VALID,0,VALID,23.9939,VALID,73,VALID,0,
2012-05-23, 01:07:04,VALID,999.292,VALID,0,VALID,94.0274,VALID,0,VALID,23.9939,VALID,175,VALID,0.727734,
2012-05-23, 01:08:04,VALID,999.249,VALID,0,VALID,93.7451,VALID,0,VALID,24.0915,VALID,170,VALID,0.819141,
2012-05-23, 01:09:04,VALID,999.282,VALID,0,VALID,93.2263,VALID,0,VALID,24.1891,VALID,172,VALID,1.06094,
2012-05-23, 01:10:04,VALID,999.255,VALID,0,VALID,92.3718,VALID,0,VALID,24.2866,VALID,163,VALID,1.00508,
2012-05-23, 01:11:04,VALID,999.234,VALID,0,VALID,91.586,VALID,0,VALID,24.3647,VALID,155,VALID,1.01992,
2012-05-23, 01:12:04,VALID,999.218,VALID,0,VALID,90.8688,VALID,0,VALID,24.4019,VALID,154,VALID,1.09687,
2012-05-23, 01:13:04,VALID,999.208,VALID,0,VALID,90.4797,VALID,0,VALID,24.4623,VALID,152,VALID,1.21016,
2012-05-23, 01:14:04,VALID,999.239,VALID,0,VALID,90.205,VALID,0,VALID,24.5013,VALID,143,VALID,1.19336,
2012-05-23, 01:15:04,VALID,999.274,VALID,0,VALID,89.7625,VALID,0,VALID,24.5209,VALID,155,VALID,1.08828,
2012-05-23, 01:16:04,VALID,999.256,VALID,0,VALID,89.4878,VALID,0,VALID,24.4818,VALID,152,VALID,1.25625,
2012-05-23, 01:17:04,VALID,999.251,VALID,0,VALID,89.4191,VALID,0,VALID,24.4428,VALID,147,VALID,1.06953,
2012-05-23, 01:18:04,VALID,999.267,VALID,0,VALID,89.4649,VALID,0,VALID,24.4037,VALID,145,VALID,0.930469,
2012-05-23, 01:19:04,VALID,999.253,VALID,0,VALID,89.3963,VALID,0,VALID,24.3452,VALID,136,VALID,0.944141,
2012-05-23, 01:20:04,VALID,999.236,VALID,0,VALID,89.4802,VALID,0,VALID,24.2866,VALID,125,VALID,0.971484,
2012-05-23, 01:21:04,VALID,999.228,VALID,0,VALID,90.0066,VALID,0,VALID,24.1891,VALID,125,VALID,0.945703,
2012-05-23, 01:22:04,VALID,999.208,VALID,0,VALID,90.3423,VALID,0,VALID,24.1696,VALID,125,VALID,0.829297,
2012-05-23, 01:23:04,VALID,999.19,VALID,0,VALID,90.5026,VALID,0,VALID,24.1305,VALID,125,VALID,0.802734,
2012-05-23, 01:24:04,VALID,999.193,VALID,0,VALID,90.678,VALID,0,VALID,24.15,VALID,125,VALID,0.594141,
2012-05-23, 01:25:04,VALID,999.171,VALID,0,VALID,90.556,VALID,0,VALID,24.1714,VALID,125,VALID,0.55625,
2012-05-23, 01:26:04,VALID,999.158,VALID,0,VALID,90.472,VALID,0,VALID,24.1696,VALID,125,VALID,0.438672,
2012-05-23, 01:27:04,VALID,999.187,VALID,0,VALID,90.1668,VALID,0,VALID,24.1305,VALID,125,VALID,0.406641,
2012-05-23, 01:28:04,VALID,999.211,VALID,0,VALID,90.2279,VALID,0,VALID,24.1714,VALID,125,VALID,0.179688,
2012-05-23, 01:29:04,VALID,999.217,VALID,0,VALID,90.3042,VALID,0,VALID,24.1305,VALID,126,VALID,0.496875,
2012-05-23, 01:30:04,VALID,999.193,VALID,0,VALID,90.6094,VALID,0,VALID,24.111,VALID,126,VALID,0.334766,
2012-05-23, 01:31:04,VALID,999.165,VALID,0,VALID,90.884,VALID,0,VALID,24.072,VALID,126,VALID,0.173828,
2012-05-23, 01:32:04,VALID,999.135,VALID,0,VALID,91.0519,VALID,0,VALID,24.0525,VALID,126,VALID,0.132422,
2012-05-23, 01:33:04,VALID,999.087,VALID,0,VALID,91.2731,VALID,0,VALID,24.0525,VALID,126,VALID,0,
2012-05-23, 01:34:04,VALID,999.091,VALID,0,VALID,91.3342,VALID,0,VALID,24.0134,VALID,126,VALID,0,
2012-05-23, 01:35:04,VALID,999.057,VALID,0,VALID,91.4486,VALID,0,VALID,23.9939,VALID,126,VALID,0.00195313,
2012-05-23, 01:36:04,VALID,999.101,VALID,0,VALID,91.7309,VALID,0,VALID,23.9939,VALID,126,VALID,0.208203,
2012-05-23, 01:37:04,VALID,999.068,VALID,0,VALID,91.914,VALID,0,VALID,23.9939,VALID,126,VALID,0.353125,
2012-05-23, 01:38:04,VALID,999.086,VALID,0,VALID,91.9293,VALID,0,VALID,23.9744,VALID,126,VALID,0.289063,
2012-05-23, 01:39:04,VALID,999.075,VALID,0,VALID,91.914,VALID,0,VALID,23.9549,VALID,126,VALID,0.132813,
2012-05-23, 01:40:04,VALID,999.049,VALID,0,VALID,91.9217,VALID,0,VALID,23.8963,VALID,126,VALID,0,
2012-05-23, 01:41:04,VALID,999.059,VALID,0,VALID,91.7462,VALID,0,VALID,23.8378,VALID,126,VALID,0,
2012-05-23, 01:42:04,VALID,999.016,VALID,0,VALID,91.8454,VALID,0,VALID,23.7597,VALID,126,VALID,0,
2012-05-23, 01:43:04,VALID,998.967,VALID,0,VALID,92.2574,VALID,0,VALID,23.7402,VALID,126,VALID,0,
2012-05-23, 01:44:04,VALID,998.958,VALID,0,VALID,92.6694,VALID,0,VALID,23.7402,VALID,126,VALID,0,
2012-05-23, 01:45:04,VALID,998.948,VALID,0,VALID,92.8448,VALID,0,VALID,23.6799,VALID,126,VALID,0,
2012-05-23, 01:46:04,VALID,998.942,VALID,0,VALID,93.1043,VALID,0,VALID,23.6622,VALID,125,VALID,0,
2012-05-23, 01:47:04,VALID,998.942,VALID,0,VALID,93.356,VALID,0,VALID,23.6427,VALID,53,VALID,0,
2012-05-23, 01:48:04,VALID,998.981,VALID,0,VALID,93.4476,VALID,0,VALID,23.6232,VALID,45,VALID,0.775781,
2012-05-23, 01:49:04,VALID,998.986,VALID,0,VALID,93.646,VALID,0,VALID,23.6036,VALID,34,VALID,0.819141,
2012-05-23, 01:50:04,VALID,999.024,VALID,0,VALID,93.7299,VALID,0,VALID,23.6036,VALID,27,VALID,0.762109,
2012-05-23, 01:51:04,VALID,999.045,VALID,0,VALID,93.7223,VALID,0,VALID,23.5646,VALID,22,VALID,0.861719,
2012-05-23, 01:52:04,VALID,999.023,VALID,0,VALID,93.6536,VALID,0,VALID,23.5256,VALID,22,VALID,0.809375,
2012-05-23, 01:53:04,VALID,999.001,VALID,0,VALID,93.7223,VALID,0,VALID,23.4866,VALID,22,VALID,0.778516,
2012-05-23, 01:54:04,VALID,998.978,VALID,0,VALID,93.8596,VALID,0,VALID,23.4866,VALID,22,VALID,0.792969,
2012-05-23, 01:55:04,VALID,999,VALID,0,VALID,93.852,VALID,0,VALID,23.4475,VALID,32,VALID,0.794531,
2012-05-23, 01:56:04,VALID,998.978,VALID,0,VALID,93.768,VALID,0,VALID,23.428,VALID,37,VALID,0.774219,
2012-05-23, 01:57:04,VALID,999.031,VALID,0,VALID,93.5849,VALID,0,VALID,23.389,VALID,38,VALID,0.589453,
2012-05-23, 01:58:04,VALID,999.031,VALID,0,VALID,93.4018,VALID,0,VALID,23.311,VALID,38,VALID,0.605859,
2012-05-23, 01:59:04,VALID,999.029,VALID,0,VALID,93.356,VALID,0,VALID,23.2719,VALID,38,VALID,0.527734,
2012-05-23, 02:00:04,VALID,999.05,VALID,0,VALID,93.4476,VALID,0,VALID,23.2134,VALID,38,VALID,0.344141,
2012-05-23, 02:01:04,VALID,999.031,VALID,0,VALID,93.6002,VALID,0,VALID,23.1939,VALID,38,VALID,0.138281,
2012-05-23, 02:02:04,VALID,999.051,VALID,0,VALID,93.8214,VALID,0,VALID,23.1549,VALID,38,VALID,0.266406,
2012-05-23, 02:03:04,VALID,999.042,VALID,0,VALID,93.9893,VALID,0,VALID,23.1141,VALID,38,VALID,0.329688,
2012-05-23, 02:04:04,VALID,999.022,VALID,0,VALID,94.119,VALID,0,VALID,23.1159,VALID,38,VALID,0.411719,
2012-05-23, 02:05:04,VALID,998.995,VALID,0,VALID,94.264,VALID,0,VALID,23.0964,VALID,38,VALID,0.784375,
2012-05-23, 02:06:04,VALID,999.067,VALID,0,VALID,94.4852,VALID,0,VALID,23.1141,VALID,38,VALID,1.29336,
2012-05-23, 02:07:04,VALID,999.063,VALID,0,VALID,94.6607,VALID,0,VALID,23.1354,VALID,36,VALID,1.57891,
2012-05-23, 02:08:04,VALID,999.042,VALID,0,VALID,94.7828,VALID,0,VALID,23.1549,VALID,37,VALID,1.84844,
2012-05-23, 02:09:04,VALID,999.043,VALID,0,VALID,94.8667,VALID,0,VALID,23.1549,VALID,42,VALID,1.65703,
2012-05-23, 02:10:04,VALID,999.031,VALID,0,VALID,94.9506,VALID,0,VALID,23.1549,VALID,50,VALID,1.77344,
2012-05-23, 02:11:04,VALID,998.995,VALID,0,VALID,95.0345,VALID,0,VALID,23.1939,VALID,60,VALID,1.72109,
2012-05-23, 02:12:04,VALID,998.978,VALID,0,VALID,95.088,VALID,0,VALID,23.2134,VALID,61,VALID,1.57305,
2012-05-23, 02:13:04,VALID,998.976,VALID,0,VALID,95.149,VALID,0.104696,VALID,23.2134,VALID,67,VALID,1.51641,
2012-05-23, 02:14:04,VALID,998.976,VALID,0,VALID,95.1719,VALID,0,VALID,23.1939,VALID,68,VALID,1.16836,
2012-05-23, 02:15:04,VALID,998.998,VALID,0,VALID,95.1871,VALID,0,VALID,23.2134,VALID,68,VALID,1.26211,
2012-05-23, 02:16:04,VALID,998.994,VALID,0,VALID,95.2024,VALID,0,VALID,23.1726,VALID,68,VALID,1.12227,
2012-05-23, 02:17:04,VALID,999.025,VALID,0,VALID,95.2253,VALID,0,VALID,23.1939,VALID,61,VALID,0.976563,
2012-05-23, 02:18:04,VALID,999.042,VALID,0,VALID,95.2024,VALID,0,VALID,23.1939,VALID,54,VALID,0.890234,
2012-05-23, 02:19:04,VALID,999.074,VALID,0,VALID,95.1719,VALID,0,VALID,23.1744,VALID,43,VALID,1.07656,
2012-05-23, 02:20:04,VALID,999.09,VALID,0,VALID,95.149,VALID,0,VALID,23.1549,VALID,26,VALID,1.23945,
2012-05-23, 02:21:04,VALID,999.108,VALID,0,VALID,95.1185,VALID,0,VALID,23.1159,VALID,22,VALID,1.33164,
2012-05-23, 02:22:04,VALID,999.103,VALID,0,VALID,95.1032,VALID,0,VALID,23.0751,VALID,23,VALID,1.48242,
2012-05-23, 02:23:04,VALID,999.068,VALID,0,VALID,95.1108,VALID,0,VALID,23.1159,VALID,24,VALID,1.32734,
2012-05-23, 02:24:04,VALID,999.055,VALID,0,VALID,95.1032,VALID,0,VALID,23.1159,VALID,28,VALID,1.41055,
2012-05-23, 02:25:04,VALID,999.064,VALID,0,VALID,95.149,VALID,0,VALID,23.1354,VALID,30,VALID,1.12734,
2012-05-23, 02:26:04,VALID,999.056,VALID,0,VALID,95.1566,VALID,0,VALID,23.1354,VALID,33,VALID,1.30938,
2012-05-23, 02:27:04,VALID,999.107,VALID,0,VALID,95.1871,VALID,0,VALID,23.1744,VALID,38,VALID,1.17891,
2012-05-23, 02:28:04,VALID,999.089,VALID,0,VALID,95.1948,VALID,0,VALID,23.1744,VALID,35,VALID,1.13242,
2012-05-23, 02:29:04,VALID,999.113,VALID,0,VALID,95.21,VALID,0,VALID,23.1939,VALID,34,VALID,0.774609,
2012-05-23, 02:30:04,VALID,999.093,VALID,0,VALID,95.2024,VALID,0,VALID,23.1726,VALID,33,VALID,0.675391,
2012-05-23, 02:31:04,VALID,999.07,VALID,0,VALID,95.1719,VALID,0,VALID,23.1939,VALID,33,VALID,0.823047,
2012-05-23, 02:32:04,VALID,999.085,VALID,0,VALID,95.1566,VALID,0,VALID,23.1744,VALID,33,VALID,1.03711,
2012-05-23, 02:33:04,VALID,999.053,VALID,0,VALID,95.1414,VALID,0,VALID,23.1549,VALID,33,VALID,0.941797,
2012-05-23, 02:34:04,VALID,999.084,VALID,0,VALID,95.1337,VALID,0,VALID,23.1549,VALID,25,VALID,0.944531,
2012-05-23, 02:35:04,VALID,999.081,VALID,0,VALID,95.1185,VALID,0,VALID,23.1354,VALID,23,VALID,1.22461,
2012-05-23, 02:36:04,VALID,999.04,VALID,0,VALID,95.1185,VALID,0,VALID,23.1354,VALID,23,VALID,1.09961,
2012-05-23, 02:37:04,VALID,999.074,VALID,0,VALID,95.1337,VALID,0,VALID,23.1354,VALID,23,VALID,0.775781,
2012-05-23, 02:38:04,VALID,999.059,VALID,0,VALID,95.1337,VALID,0,VALID,23.1354,VALID,30,VALID,0.796875,
2012-05-23, 02:39:04,VALID,999.02,VALID,0,VALID,95.1185,VALID,0,VALID,23.1354,VALID,38,VALID,0.752734,
2012-05-23, 02:40:04,VALID,998.986,VALID,0,VALID,95.1261,VALID,0,VALID,23.1354,VALID,38,VALID,0.718359,
2012-05-23, 02:41:04,VALID,998.961,VALID,0,VALID,95.1337,VALID,0,VALID,23.1549,VALID,38,VALID,0.773047,
2012-05-23, 02:42:04,VALID,998.966,VALID,0,VALID,95.1414,VALID,0,VALID,23.1354,VALID,38,VALID,0.698047,
2012-05-23, 02:43:04,VALID,998.952,VALID,0,VALID,95.1185,VALID,0,VALID,23.1549,VALID,38,VALID,0.638281,
2012-05-23, 02:44:04,VALID,998.988,VALID,0,VALID,95.0956,VALID,0,VALID,23.1354,VALID,38,VALID,0.505469,
2012-05-23, 02:45:04,VALID,999.006,VALID,0,VALID,95.088,VALID,0,VALID,23.1159,VALID,38,VALID,0.289063,
2012-05-23, 02:46:04,VALID,999.027,VALID,0,VALID,95.0574,VALID,0,VALID,23.0964,VALID,38,VALID,0.406641,
2012-05-23, 02:47:04,VALID,998.991,VALID,0,VALID,95.0651,VALID,0,VALID,23.0946,VALID,38,VALID,0.490234,
2012-05-23, 02:48:04,VALID,998.951,VALID,0,VALID,95.0574,VALID,0,VALID,23.0964,VALID,38,VALID,0.417188,
2012-05-23, 02:49:04,VALID,998.943,VALID,0,VALID,95.0574,VALID,0,VALID,23.1159,VALID,38,VALID,0.400781,
2012-05-23, 02:50:04,VALID,998.905,VALID,0,VALID,95.0651,VALID,0,VALID,23.1159,VALID,38,VALID,0.282813,
2012-05-23, 02:51:04,VALID,998.903,VALID,0,VALID,95.0345,VALID,0,VALID,23.0964,VALID,38,VALID,0.1625,
2012-05-23, 02:52:04,VALID,998.904,VALID,0,VALID,95.0193,VALID,0,VALID,23.0769,VALID,38,VALID,0,
2012-05-23, 02:53:04,VALID,998.928,VALID,0,VALID,94.9811,VALID,0,VALID,23.0591,VALID,38,VALID,0,
2012-05-23, 02:54:04,VALID,998.93,VALID,0,VALID,95.004,VALID,0,VALID,23.0573,VALID,38,VALID,0,
2012-05-23, 02:55:04,VALID,998.94,VALID,0,VALID,95.0498,VALID,0,VALID,23.0573,VALID,38,VALID,0.345703,
2012-05-23, 02:56:04,VALID,998.94,VALID,0,VALID,95.0803,VALID,0,VALID,23.0573,VALID,38,VALID,0.555078,
2012-05-23, 02:57:04,VALID,998.929,VALID,0,VALID,95.1108,VALID,0,VALID,23.0964,VALID,38,VALID,0.671875,
2012-05-23, 02:58:04,VALID,998.922,VALID,0,VALID,95.1185,VALID,0,VALID,23.1159,VALID,36,VALID,0.918359,
2012-05-23, 02:59:04,VALID,998.912,VALID,0,VALID,95.0803,VALID,0,VALID,23.1354,VALID,45,VALID,0.742969,
2012-05-23, 03:00:04,VALID,998.929,VALID,0,VALID,95.0269,VALID,0,VALID,23.1566,VALID,45,VALID,0.762109,
2012-05-23, 03:01:04,VALID,998.901,VALID,0,VALID,94.9735,VALID,0,VALID,23.1549,VALID,45,VALID,0.578516,
2012-05-23, 03:02:04,VALID,998.905,VALID,0,VALID,94.882,VALID,0,VALID,23.1957,VALID,45,VALID,0.660156,
2012-05-23, 03:03:04,VALID,998.906,VALID,0,VALID,94.6912,VALID,0,VALID,23.1549,VALID,45,VALID,0.819922,
2012-05-23, 03:04:04,VALID,998.901,VALID,0,VALID,94.5462,VALID,0,VALID,23.1354,VALID,45,VALID,0.793359,
2012-05-23, 03:05:04,VALID,998.915,VALID,0,VALID,94.4165,VALID,0,VALID,23.1159,VALID,32,VALID,0.929297,
2012-05-23, 03:06:04,VALID,998.92,VALID,0,VALID,94.18,VALID,0,VALID,23.0573,VALID,26,VALID,1.05469,
2012-05-23, 03:07:04,VALID,998.913,VALID,0,VALID,94.0961,VALID,0,VALID,23.0183,VALID,23,VALID,1.26758,
2012-05-23, 03:08:04,VALID,998.921,VALID,0,VALID,94.119,VALID,0,VALID,22.9598,VALID,18,VALID,1.0375,
2012-05-23, 03:09:04,VALID,998.919,VALID,0,VALID,94.3174,VALID,0,VALID,22.9598,VALID,18,VALID,0.976172,
2012-05-23, 03:10:04,VALID,998.909,VALID,0,VALID,94.4623,VALID,0,VALID,22.9403,VALID,18,VALID,0.873828,
2012-05-23, 03:11:04,VALID,998.904,VALID,0,VALID,94.5691,VALID,0,VALID,22.9403,VALID,18,VALID,0.661328,
2012-05-23, 03:12:04,VALID,998.852,VALID,0,VALID,94.676,VALID,0,VALID,22.9598,VALID,18,VALID,0.878125,
2012-05-23, 03:13:04,VALID,998.832,VALID,0,VALID,94.7141,VALID,0,VALID,22.9598,VALID,18,VALID,0.729688,
2012-05-23, 03:14:04,VALID,998.788,VALID,0,VALID,94.7294,VALID,0,VALID,22.9598,VALID,18,VALID,0.953516,
2012-05-23, 03:15:04,VALID,998.796,VALID,0,VALID,94.7217,VALID,0,VALID,22.9385,VALID,18,VALID,0.885156,
2012-05-23, 03:16:04,VALID,998.793,VALID,0,VALID,94.7217,VALID,0,VALID,22.9403,VALID,18,VALID,0.870313,
2012-05-23, 03:17:04,VALID,998.82,VALID,0,VALID,94.6836,VALID,0,VALID,22.9208,VALID,18,VALID,0.857031,
2012-05-23, 03:18:04,VALID,998.819,VALID,0,VALID,94.676,VALID,0,VALID,22.9208,VALID,18,VALID,0.641797,
2012-05-23, 03:19:04,VALID,998.876,VALID,0,VALID,94.6226,VALID,0,VALID,22.9013,VALID,18,VALID,0.395312,
2012-05-23, 03:20:04,VALID,998.838,VALID,0,VALID,94.5997,VALID,0,VALID,22.8623,VALID,18,VALID,0.222266,
2012-05-23, 03:21:04,VALID,998.808,VALID,0,VALID,94.5691,VALID,0,VALID,22.8427,VALID,18,VALID,0,
2012-05-23, 03:22:04,VALID,998.808,VALID,0,VALID,94.5539,VALID,0,VALID,22.8232,VALID,18,VALID,0,
2012-05-23, 03:23:04,VALID,998.827,VALID,0,VALID,94.6226,VALID,0,VALID,22.8445,VALID,18,VALID,0,
2012-05-23, 03:24:04,VALID,998.822,VALID,0,VALID,94.6988,VALID,0,VALID,22.8215,VALID,18,VALID,0,
2012-05-23, 03:25:04,VALID,998.869,VALID,0,VALID,94.8285,VALID,0,VALID,22.8623,VALID,18,VALID,0.3125,
2012-05-23, 03:26:04,VALID,998.875,VALID,0,VALID,94.9354,VALID,0,VALID,22.88,VALID,18,VALID,0.796484,
2012-05-23, 03:27:04,VALID,998.877,VALID,0,VALID,94.9735,VALID,0,VALID,22.9403,VALID,16,VALID,1.04414,
2012-05-23, 03:28:04,VALID,998.89,VALID,0,VALID,94.9735,VALID,0,VALID,22.9793,VALID,16,VALID,1.14688,
2012-05-23, 03:29:04,VALID,998.886,VALID,0,VALID,94.8591,VALID,0,VALID,22.9793,VALID,14,VALID,1.26445,
2012-05-23, 03:30:04,VALID,998.874,VALID,0,VALID,94.7294,VALID,0,VALID,22.9793,VALID,14,VALID,1.37891,
2012-05-23, 03:31:04,VALID,998.903,VALID,0,VALID,94.5768,VALID,0,VALID,22.9403,VALID,14,VALID,1.21328,
2012-05-23, 03:32:04,VALID,998.894,VALID,0,VALID,94.5005,VALID,0,VALID,22.9403,VALID,16,VALID,0.996875,
2012-05-23, 03:33:04,VALID,998.888,VALID,0,VALID,94.5081,VALID,0,VALID,22.919,VALID,20,VALID,0.682422,
2012-05-23, 03:34:04,VALID,998.895,VALID,0,VALID,94.5081,VALID,0,VALID,22.9208,VALID,35,VALID,0.5,
2012-05-23, 03:35:04,VALID,998.917,VALID,0,VALID,94.4547,VALID,0,VALID,22.8818,VALID,35,VALID,0.564062,
2012-05-23, 03:36:04,VALID,998.921,VALID,0,VALID,94.3631,VALID,0,VALID,22.841,VALID,35,VALID,0.623047,
2012-05-23, 03:37:04,VALID,998.9,VALID,0,VALID,94.3097,VALID,0,VALID,22.8427,VALID,35,VALID,0.570313,
2012-05-23, 03:38:04,VALID,998.898,VALID,0,VALID,94.2945,VALID,0,VALID,22.8232,VALID,35,VALID,0.528516,
2012-05-23, 03:39:04,VALID,998.865,VALID,0,VALID,94.3403,VALID,0,VALID,22.8427,VALID,35,VALID,0.330078,
2012-05-23, 03:40:04,VALID,998.828,VALID,0,VALID,94.3174,VALID,0,VALID,22.8427,VALID,35,VALID,0.353906,
2012-05-23, 03:41:04,VALID,998.822,VALID,0,VALID,94.3174,VALID,0,VALID,22.8623,VALID,35,VALID,0.642187,
2012-05-23, 03:42:04,VALID,998.828,VALID,0,VALID,94.3631,VALID,0,VALID,22.9013,VALID,35,VALID,0.549219,
2012-05-23, 03:43:04,VALID,998.821,VALID,0,VALID,94.4242,VALID,0,VALID,22.9793,VALID,101,VALID,0.642187,
2012-05-23, 03:44:04,VALID,998.813,VALID,0,VALID,94.4165,VALID,0,VALID,23.0573,VALID,101,VALID,0.664453,
2012-05-23, 03:45:04,VALID,998.806,VALID,0,VALID,94.325,VALID,0,VALID,23.1159,VALID,101,VALID,0.558203,
2012-05-23, 03:46:04,VALID,998.809,VALID,0,VALID,94.2182,VALID,0,VALID,23.1744,VALID,119,VALID,0.676172,
2012-05-23, 03:47:04,VALID,998.86,VALID,0,VALID,94.1648,VALID,0,VALID,23.2134,VALID,119,VALID,0.462109,
2012-05-23, 03:48:04,VALID,998.829,VALID,0,VALID,94.058,VALID,0,VALID,23.2524,VALID,119,VALID,0.279687,